www.pogodaiklimat.ru
ПОГОДА в Тузле
Время
(UTC), дата
10 20.05
11 20.05
12 20.05
13 20.05
14 20.05
15 20.05
16 20.05
17 20.05
18 20.05
19 20.05
20 20.05
06 21.05
07 21.05
08 21.05
09 21.05
10 21.05
11 21.05
12 21.05
13 21.05
14 21.05
15 21.05
16 21.05
17 21.05
18 21.05
19 21.05
20 21.05
06 22.05
07 22.05
08 22.05
09 22.05
10 22.05
11 22.05
12 22.05
13 22.05
14 22.05
15 22.05
16 22.05
17 22.05
18 22.05
19 22.05
20 22.05
06 23.05
07 23.05
08 23.05
09 23.05
10 23.05
11 23.05
12 23.05
13 23.05
14 23.05
15 23.05
16 23.05
17 23.05
18 23.05
19 23.05
20 23.05
06 24.05
07 24.05
08 24.05
09 24.05
10 24.05
11 24.05
12 24.05
13 24.05
14 24.05
15 24.05
16 24.05
17 24.05
18 24.05
19 24.05
20 24.05
06 25.05
07 25.05
08 25.05
09 25.05
10 25.05
11 25.05
12 25.05
13 25.05
14 25.05
15 25.05
16 25.05
17 25.05
18 25.05
19 25.05
20 25.05
06 26.05
07 26.05
09 26.05
11 26.05
10 26.05
12 26.05
13 26.05
14 26.05
15 26.05
17 26.05
16 26.05
18 26.05
19 26.05
20 26.05
06 27.05
08 27.05
07 27.05
09 27.05
Ветер
(напр.,м/с)
Видим. Явления Облачность Т
(С)
Тd
(С)
f
(%)
Тe
(С)
Тes
(С)
Комфортность P
(гПа)
Po
(гПа)
Тmin
(С)
Tmax
(С)
R
(мм)
R24
(мм)
S
(см)
З 1 20 км слаб. дождь 10/0
[Ac As]
+15.4 +14.0 91 +16 +22 1013.6 978.0
В 1 15 км слаб. дождь 10/0
[Ac As]
+15.0 +14.3 96 +15 +22 1013.4 977.8
Ю 1 15 км слаб. дождь 10/0
[Ac As]
+15.2 +13.8 91 +16 +22 1013.4 977.8 4
С 1 20 км в посл. час дождь 10/0
[Ac As]
+15.6 +13.7 88 +16 +21 1013.4 977.8
штиль 0 15 км слаб. дождь 10/0
[Ac As]
+15.0 +13.6 91 +15 +19 1013.4 977.8
ЮВ 1 15 км слаб. дождь 10/0
[Ac As]
+14.9 +14.2 96 +15 +18 1013.5 977.8
З 1 15 км слаб. дождь 10/0
[Ac As]
+14.6 +13.2 91 +15 +16 1013.3 977.6
В 1 15 км слаб. дождь 10/8 1000 м
[Frnb Ac As]
+13.9 +12.3 90 +14 +14 1014.0 978.1
Ю 1 15 км в посл. час дождь 10/6 1000 м
[Sc Ac As]
+12.5 +9.7 83 +13 +13 1014.6 978.5 5
З 1 10 км слаб. дождь 10/8 1000 м
[Frnb Ac As]
+12.0 +9.9 87 +12 +12 1015.4 979.2
З 2 10 км слаб. дождь 10/8 1000 м
[Frnb Ac As]
+11.6 +10.5 93 +10 +10 1016.3 980.1
З 1 20 км 8/0
[Ac trans]
+12.0 +7.2 72 +12 +15 1019.6 983.2 +10.4 +18.0 2 6.5
ЮЗ 1 20 км 6/1 1000 м
[Cu hum Ac trans]
+13.4 +5.3 58 +14 +20 1019.7 983.5
З 1 20 км 4/1 1000 м
[Cu hum Ac trans]
+14.7 +4.6 51 +15 +26 опасность
простуды
1019.9 983.9
З 2 20 км 4/1 1000 м
[Cu hum Ac trans]
+16.4 +5.7 49 +17 +28 1019.6 983.9
З 2 20 км 4/4 1000 м
[Cu hum]
+16.7 +4.9 46 +17 +28 1019.6 983.9
З 2 20 км 5/5 1000 м
[Cu hum]
+17.4 +5.9 47 +18 +27 1019.5 983.9
З 2 20 км 5/5 1000 м
[Cu hum]
+17.6 +4.9 43 +18 +27 1019.6 984.0
З 2 20 км 5/5 1000 м
[Cu hum]
+17.9 +5.6 44 +18 +26 1019.8 984.2
З 1 20 км 6/6 1000 м
[Cu hum]
+17.7 +4.3 41 +19 +24 1019.4 983.8
СЗ 1 20 км 6/6 1000 м
[Cu hum]
+17.5 +4.0 41 +19 +22 1019.5 983.8
З 1 20 км 6/6 1000 м
[Cu hum]
+16.9 +5.2 46 +18 +19 1019.5 983.8
З 1 20 км 4/3 1000 м
[Cu hum Ac trans]
+17.9 +4.9 42 +19 +20 1019.4 983.8
СЗ 1 20 км 3/0
[Ac trans]
+15.4 +4.4 48 +16 +16 1020.1 984.2
С 1 20 км 1/0
[Ac trans]
+12.3 +5.6 64 +12 +12 1021.3 985.0
С 2 10 км ясно +9.7 +6.7 82 +8 +8 1022.3 985.6
штиль 0 20 км ясно +9.5 +6.7 83 +9 +15 1024.8 988.0 +3.6 +18.8
З 2 20 км 1/0
[Ac trans]
+12.6 +4.3 57 +12 +20 1024.8 988.4
З 2 20 км 1/0
[Ac trans]
+14.6 +4.3 50 +14 +26 опасность
простуды
1025.1 988.9
ЮЗ 1 20 км 3/1 1000 м
[Cu hum Ac trans]
+16.6 +6.2 50 +18 +32 опасность
простуды
1024.8 988.9
З 2 25 км 3/1 1000 м
[Cu hum Ac trans]
+18.1 +4.6 41 +19 +33 опасность
простуды
1024.9 989.1
СЗ 2 30 км 3/1 1000 м
[Cu hum Ac trans]
+18.6 +2.7 35 +19 +34 опасность
простуды
1024.7 989.0
З 2 30 км 4/1 1000 м
[Cu hum Ac trans Ci sp]
+20.0 +0.8 28 +21 +34 комфорт 1024.6 989.0
З 3 30 км 4/1 1000 м
[Cu hum Ac trans Ci sp]
+19.9 +2.2 31 +20 +30 1024.7 989.1
З 1 30 км 4/1 800 м
[Cu hum Ac trans Ci sp]
+20.5 +5.9 39 +22 +32 комфорт 1024.1 988.6
З 2 30 км 3/1 800 м
[Cu hum Ac trans]
+20.9 +6.0 38 +22 +28 комфорт 1023.6 988.2
З 2 30 км 1/0
[Ac trans]
+20.6 +5.8 38 +22 +25 комфорт 1023.6 988.2
З 1 30 км 3/0
[Ac trans Ci sp]
+19.9 +6.5 42 +22 +23 комфорт 1023.2 987.7
СЗ 1 20 км 3/0
[Ac trans Ci sp]
+17.9 +5.6 44 +19 +19 1023.4 987.7
С 2 15 км 3/0
[Ac trans Ci sp]
+13.5 +8.1 70 +13 +13 1024.3 988.0
С 2 10 км 1/0
[Ac trans]
+12.1 +8.1 77 +11 +11 1024.7 988.2
штиль 0 20 км 10/0
[Ac As]
+12.1 +9.1 82 +12 +14 1026.2 989.7 +8.4 +21.0
З 1 20 км 9/0
[Ac As]
+13.4 +9.2 76 +14 +17 1026.5 990.1
ЮВ 1 20 км 8/0
[Ac As]
+15.5 +8.8 64 +16 +23 1026.0 989.9
ЮВ 1 20 км 9/0
[Ac As]
+19.4 +9.0 51 +21 +28 комфорт 1025.4 989.8
ЮЗ 1 20 км 6/0
[Ac trans]
+20.5 +8.5 46 +23 +37 комфорт 1024.8 989.4
З 2 20 км 5/0
[Ac trans]
+21.5 +9.2 45 +23 +36 комфорт 1023.9 988.6
ЮЗ 3 20 км 5/0
[Ac trans]
+22.1 +7.7 40 +23 +33 комфорт 1024.7 989.5
З 2 20 км 6/3 1000 м
[Cu hum Ac trans]
+24.0 +11.2 45 +25 +33 комфорт 1023.1 988.2
З 2 20 км 6/3 1000 м
[Cu hum Ac trans]
+23.7 +10.8 44 +25 +31 комфорт 1022.7 987.7
З 2 25 км 10/0
[Ac As]
+23.0 +10.3 45 +25 +27 комфорт 1022.2 987.2
З 1 25 км 8/0
[Ac As]
+23.5 +11.6 47 +25 +27 комфорт 1021.5 986.6
штиль 0 20 км 8/0
[Ac As]
+22.6 +11.7 50 +25 +26 комфорт 1021.3 986.3
СВ 1 25 км 6/0
[Ac lent Ci sp]
+20.5 +12.6 60 +24 +24 комфорт 1021.5 986.2
СВ 1 20 км 4/0
[Ac lent]
+17.8 +13.3 75 +19 +19 1021.3 985.7
СВ 1 10 км 3/0
[Ac trans]
+15.5 +12.9 84 +16 +16 1021.6 985.7
З 2 10 км слаб. дождь 10/10 600 м
[Frnb]
+11.5 +9.6 88 +10 +10 1027.9 991.3 +11.0 +25.1 5 4.8
З 2 10 км слаб. дождь 10/10 600 м
[Frnb]
+11.3 +9.8 90 +10 +10 1029.1 992.4
З 2 15 км в посл. час дождь 10/10 800 м
[St]
+11.7 +10.0 89 +11 +11 1029.2 992.5
З 2 20 км {дождь} 10/10 800 м
[St]
+12.7 +11.0 89 +12 +12 1028.7 992.2
З 3 20 км {дождь} 10/10 800 м
[St]
+13.7 +10.3 80 +13 +13 1028.6 992.2
З 3 20 км 9/9 1000 м
[Cu hum]
+14.5 +9.4 71 +14 +15 1028.5 992.2
З 2 20 км {дождь} 8/5 1000 м
[Cu hum Ac trans]
+15.5 +10.2 71 +15 +21 1028.4 992.2 1
З 2 20 км 8/8 800 м
[Cu hum]
+17.6 +8.0 53 +18 +21 1027.1 991.2
З 2 20 км 6/6 800 м
[Cu hum]
+19.2 +8.5 50 +21 +25 комфорт 1026.6 991.0
З 1 25 км 6/6 800 м
[Cu hum]
+17.0 +7.0 52 +18 +21 1026.9 991.0
З 1 25 км 8/8 800 м
[Cu hum]
+16.5 +7.9 57 +17 +18 1027.0 991.0
З 1 20 км 6/3 800 м
[Cu med, cong Ac trans Ci sp]
+16.0 +9.2 64 +17 +18 1027.2 991.1
С 1 20 км 5/0
[Ac trans]
+14.7 +8.9 68 +15 +15 1027.4 991.1 1
С 2 20 км 1/0
[Ac trans]
+11.3 +8.6 83 +10 +10 1027.8 991.1
С 2 10 км ясно +9.6 +8.0 90 +8 +8 1029.1 992.1
штиль 0 20 км 4/0
[Ac trans]
+9.6 +8.0 90 +9 +14 1029.0 992.1 +6.2 +19.8 1.3
ЮЗ 2 20 км 6/0
[Ac trans]
+12.4 +7.6 73 +12 +17 1028.7 992.1
ЮЗ 2 20 км 4/3 1000 м
[Cu hum Ac trans]
+15.3 +8.5 64 +15 +23 1027.8 991.6
З 2 20 км 5/5 800 м
[Cu hum]
+16.7 +6.1 50 +17 +25 1027.2 991.2
З 2 20 км 8/5 800 м
[Cu hum Ac trans]
+17.1 +5.9 48 +17 +23 1026.5 990.5
З 2 20 км 6/5 800 м
[Cu hum Ac trans]
+17.6 +5.4 45 +18 +26 1026.3 990.4
З 2 20 км в посл. час дождь 8/5 800 м
[Cu hum Ac trans]
+15.9 +8.6 62 +16 +22 1026.1 990.0 1
З 2 20 км {дождь} 5/5 800 м
[Cu hum]
+18.1 +7.7 51 +19 +26 1024.9 989.1
З 2 20 км {дождь} 5/5 800 м
[Cu hum]
+18.4 +7.5 49 +19 +25 1024.4 988.7
СЗ 2 20 км {дождь} 8/4 800 м
[Cu med, cong Ac trans Ci sp]
+17.7 +6.8 49 +18 +21 1024.3 988.5
З 1 20 км 9/1 800 м
[Cu med, cong Ac As]
+16.4 +6.7 53 +17 +19 1024.3 988.3
З 2 10 км слаб. дождь 10/0
[As op]
+11.6 +9.0 84 +10 +11 1025.9 989.3
З 2 15 км в посл. час дождь 9/0
[Ac As]
+11.1 +9.8 92 +10 +10 1025.9 989.3 3
З 1 15 км {дождь} 5/0
[Ac trans]
+10.0 +8.8 92 +9 +9 1026.2 989.4
З 1 10 км {дождь} 1/0
[Ac trans]
+9.6 +8.6 93 +9 +9 1027.0 990.1
З 1 15 км слаб. дождь 10/10 600 м
[Frnb]
+9.5 +8.5 93 +9 +9 1027.1 990.2 +8.2 +19.5 2 4.3
З 1 15 км дождь 10/10 600 м
[Frnb]
+9.5 +8.5 93 +9 +9 1026.9 990.0
З 1 15 км в посл. час снег {дождь} 10/10 600 м
[St]
+10.2 +8.6 90 +10 +10 1027.6 990.8
З 2 20 км {дождь} 8/8 800 м
[St]
+13.3 +10.6 84 +13 +16 1026.7 990.4
ЮЗ 1 15 км {дождь} 10/10 800 м
[St]
+11.7 +9.4 86 +12 +12 1027.4 990.8
ЮЗ 1 20 км дождь 10/10 600 м
[Frnb]
+12.5 +10.7 89 +12 +12 1026.5 990.1 5
Ю 1 20 км слаб. дождь 10/10 600 м
[St]
+14.4 +10.3 76 +15 +15 1026.0 989.8
штиль 0 20 км слаб. дождь 10/0 1500 м
[As op]
+12.4 +10.0 85 +12 +15 1026.4 989.9
З 2 20 км слаб. дождь 8/4 600 м
[St Ac As]
+13.5 +10.1 80 +13 +15 1025.9 989.5
ЮЗ 1 20 км гроза, ливневой дождь 10/10 600 м
[Cb cap]
+11.4 +9.9 90 +11 +11 1026.7 990.0
В 1 20 км гроза, ливневой дождь 9/9 600 м
[Cb cap]
+12.0 +10.3 89 +12 +12 1026.1 989.5
З 1 20 км в посл. час гроза {дождь} 10/0
[Ac As]
+10.9 +9.4 90 +11 +11 1027.1 990.4 8
ЮВ 1 10 км сильн. гроза, ливневой дождь 10/10 600 м
[Cb cap]
+10.5 +8.8 89 +10 +10 1027.6 990.8
З 1 10 км гроза, ливневой дождь 10/10 600 м
[Cb cap]
+9.5 +8.5 93 +9 +9 1028.8 991.8
З 1 10 км слаб. дождь 10/10 800 м
[St]
+9.9 +9.1 95 +9 +9 1028.3 991.5 +8.2 +14.7 17 25.3
З 2 10 км слаб. дождь 10/10 800 м
[St]
+11.5 +10.2 92 +10 +10 1028.8 992.1
ЮЗ 1 10 км слаб. дождь 10/10 800 м
[Frnb]
+10.5 +9.7 95 +10 +10 1028.3 991.5
З 2 20 км в посл. час дождь 10/8 800 м
[St Ac As]
+12.0 +9.6 85 +11 +12 1028.7 992.1
Местоположение метеостанции Тузла (Босния и Герцеговина): широта 44.55 долгота 18.70 высота над уровнем моря 307 м.
В архиве по умолчанию представлена погода в Тузле за последнюю неделю. Архивные данные за месяц целиком и за предыдущие месяцы, начиная с января 2011 года, Вы можете получить, выбрав интересующий диапазон дат из раскрывающегося списка и нажав кнопку "Найти!".
*Определитесь, кто Вы:
Внимание! Время в таблицах - всемирное. Для получения местного времени необходимо прибавить поправку, которая равна 1 ч.
Смотрите также архив погоды в соседних городах и на ближайших метеорологических станциях:
Партнеры нашего сайта:      
Пояснения к столбцам:
  • Ветер - указаны скорость ветра в м/с - средняя за 10 мин, порывы в срок и между сроками (в фигурных скобках) и направление, откуда дует ветер: С - северный,
  • СВ - северо-восточный, В - восточный, ЮВ - юго-восточный, Ю - южный, ЮЗ - юго-западный, З - западный, СЗ - северо-западный.
  • Видимость - горизонтальная дальность видимости в метрах или километрах. При видимости от 1 до 10 км при отсутствии осадков обычно наблюдается дымка, при ухудшении видимости до 1 км и менее - туман. В сухую погоду видимость может ухудшаться дымом, пылью или мглою.
  • Явления - указаны атмосферные явления, наблюдавшиеся в срок или в последний час перед сроком; фигурными скобками обозначены явления, наблюдавшиеся между сроками (за 1-3 часа до срока); квадратными скобками обозначены град или гололедные отложения с указанием их диаметра в мм.
  • Облачность - указаны через наклонную черту общая и нижняя облачность в баллах и высота нижней границы облаков в метрах; квадратными скобками обозначены формы облаков: Ci - перистые, Cs - перисто-слоистые, Cc - перисто-кучевые, Ac - высококучевые, As - высокослоистые, Sc - слоисто-кучевые, Ns - слоисто-дождевые, Cu - кучевые, Cb - кучево-дождевые. Подробнее классификацию облаков см. в Атласе облаков (PDF).
  • T - Температура воздуха - температура, измеренная на высоте 2 м над землей.
  • Td - Температура точки росы - температура, при понижении до которой содержащийся в воздухе водяной пар достигнет насыщения.
  • f - Относительная влажность воздуха - влажноcть воздуха, измеренная на высоте 2 м над землей.
  • Te - Эффективная температура - температура, которую ощущает одетый по сезону человек в тени. Характеристика душности погоды. При расчете учитывается влияние влажности воздуха и скорости ветра на теплоощущения человека.
  • Tes - Эффективная температура на солнце - температура, которую ощущает человек, с поправкой на солнечный нагрев. Характеристика знойности погоды. Зависит от высоты солнца над горизонтом, облачности и скорости ветра. Ночью, в пасмурную погоду, а также при ветре 12 м/с и более поправка равна нулю.
  • P - Атмосферное давление - приведенное к уровню моря атмосферное давление.
  • Po - Атмосферное давление - измеренное на уровне метеостанции атмосферное давление.
  • Tmin - Минимальная температура - минимум температуры воздуха на высоте 2 м над землей.
  • Tmax - Максимальная температура - максимум температуры воздуха на высоте 2 м над землей.
  • R - Количество осадков - Количество выпавших осадков за период времени, мм. При наведении курсора мыши на число - период времени, за который выпало указанное количество осадков.
  • R24 - Количество осадков - Количество выпавших осадков за 24 часа, мм.
  • S - Снежный покров - Высота снежного покрова, см. При наведении курсора мыши на число - состояние снежного покрова и степень покрытия местности в баллах.